Regional Weather Roundup
Issued by NWS Jackson, KY

Home | Current Version | Previous Version | Text Only | Print | Product List | Glossary Off
Versions: 1 2 3 4 5 6 7 8 9 10 11 12 13 14 15 16 17 18 19 20 21 22 23 24 25 26 27 28 29 30 31 32 33 34 35 36 37 38 39 40 41 42 43 44 45 46 47 48 49 50

494
ASUS43 KJKL 101710
RWRJKL

EAST KENTUCKY HOURLY WEATHER ROUNDUP
NATIONAL WEATHER SERVICE JACKSON KY
1200 PM EST SAT DEC 10 2016

NOTE: "FAIR" INDICATES FEW OR NO CLOUDS BELOW 12,000 FEET WITH
NO SIGNIFICANT WEATHER AND/OR OBSTRUCTIONS TO VISIBILITY.

* THESE REPORTS ARE NOT UNDER NWS QUALITY CONTROL AND MAY NOT
  REPORT WEATHER SUCH AS PRECIPITATION AND FOG.

KYZ079-080-083-085-087-088-110-112-115-119-120-101800
...EASTERN KENTUCKY...

CITY           SKY/WX    TMP DP  RH WIND       PRES   REMARKS
JACKSON        MOSUNNY   25  15  66 CALM      30.53F
LONDON         MOSUNNY   27  16  63 VRB3      30.56F
SOMERSET*      MOSUNNY   27  21  80 N3        30.59F
MONTICELLO*    SUNNY     29  19  66 VRB6      30.59F WCI  23
MIDDLESBORO*   SUNNY     31  19  61 CALM      30.55F
HARLAN APT*    SUNNY     32  16  51 CALM      30.51F
PIKE CO APT*   PTSUNNY   26  15  63 SW5       30.53F WCI  20
BIG SANDY APT* CLOUDY    25  15  66 W6        30.55F WCI  18
MOREHEAD APT*  CLOUDY    27  14  59 W5        30.58F WCI  21
ASHLAND*       CLOUDY    28  16  59 W7        30.56F WCI  21
$$

KYZ035-036-041-042-044-050-067-078-099-101800
...CENTRAL KENTUCKY...

CITY           SKY/WX    TMP DP  RH WIND       PRES   REMARKS
MT STERLING*   MOSUNNY   28  18  64 CALM      30.57F
FLEMING/MASON* CLOUDY    27  16  62 W9        30.56F WCI  18
DANVILLE*      PTSUNNY   27  18  69 CALM      30.59F
LEXINGTON      MOSUNNY   29  15  56 SW8       30.57F WCI  21
FRANKFORT      SUNNY     29  14  53 VRB6      30.57F WCI  23
LOUISVILLE     CLOUDY    30  14  51 S3        30.59F
LEBANON*         N/A     27  16  63 CALM      30.58F
GLASGOW*       SUNNY     32  18  57 SE3       30.59F
BOWLING GREEN  SUNNY     31  16  54 VRB3      30.61F
$$

KYZ091>093-OHZ055-061-077-WVZ005-015-034-035-042-101800
...SOUTHERN OHIO/WEST VIRGINIA...

CITY           SKY/WX    TMP DP  RH WIND       PRES   REMARKS
COVINGTON      PTSUNNY   26  16  65 W5        30.54F WCI  20
COLUMBUS       CLOUDY    25  18  74 W7        30.52F WCI  17
DAYTON         CLOUDY    25  15  66 W8        30.52F WCI  16
WILMINGTON     CLOUDY    26  15  63 W9        30.51F WCI  17
HUNTINGTON     MOSUNNY   27  13  55 VRB6      30.56F WCI  20
CHARLESTON     PTSUNNY   27  12  53 SW8       30.54F WCI  19
PINEVILLE*       N/A     28  13  52 MISG      30.54F
BECKLEY        MOSUNNY   25  12  58 W12       30.42F WCI  14
BLUEFIELD      SUNNY     22  11  62 W12       30.41F WCI  10
LOGAN CO APT*  PTSUNNY   25  14  63 CALM      30.50F
$$

VAZ002-007-008-TNZ017-027-036-066-071-101800
...SOUTHWEST VIRGINIA/EAST TENNESSEE...

CITY           SKY/WX    TMP DP  RH WIND       PRES   REMARKS
WISE*          SUNNY     28  14  54 CALM      30.43F
ABINGDON*      SUNNY     31  16  54 W3        30.48F
BRISTOL        MOSUNNY   30  17  58 S5        30.51F WCI  25
MORRISTOWN*    SUNNY     32  16  51 CALM      30.51F
SEVIERVILLE*   SUNNY     34  18  51 CALM      30.54F
KNOXVILLE      MOSUNNY   33  17  51 E5        30.56F WCI  29
OAK RIDGE      SUNNY     34  13  41 CALM      30.57F
CROSSVILLE     SUNNY     30  15  53 N3        30.51F
NASHVILLE      PTSUNNY   35  15  44 VRB5      30.59F WCI  31
$$

...KEY TO REMARKS...
VSB - VISIBILITY IN MILES
WCI - WIND CHILL INDEX
HX  - HEAT INDEX

$$




USA.gov is the U.S. government's official web portal to all federal, state and local government web resources and services.